Estació meteorològica de Bellmunt (Osona, Osona)

Consulta les dades en temps real de l'estació meteorològica de Bellmunt





Hora UTC 04:40
Temperatura 7.6 ºC
Humitat 78.0 %
Pressió 1009.9 hPa
Pluja 0.0 mm
Velocitat vent 14.5 km/h
Direcció vent W

Dades diàries 2026-05-08



Hora UTC (hivern +1h; estiu +2h)
Temperatura (ºC) Humitat (%) Pressió (hPa) Velocitat vent (km/h) Precipitació (mm)
Hora UTC Aire Humitat Pressió Vel. Dir. Vel. Max Dir. Intent. màx 5 min.
00:05 7.1 84.0 1010.3 16.1 WNW 16.1 0.0
00:10 7.1 85.0 1010.3 12.9 NW 16.1 0.0
00:15 7.0 85.0 1010.3 12.9 NW 16.1 0.0
00:20 7.1 86.0 1010.3 14.5 NW 16.1 0.0
00:25 7.1 86.0 1010.1 19.3 WNW 19.3 0.0
00:30 7.2 86.0 1010.2 16.1 NW 19.3 0.0
00:35 7.2 86.0 1010.1 17.7 NW 19.3 0.0
00:40 7.3 84.0 1010.2 19.3 NW 19.3 0.0
00:45 7.3 83.0 1010.0 19.3 NW 20.9 0.0
00:50 7.4 82.0 1010.1 17.7 NW 20.9 0.0
00:55 7.3 82.0 1010.0 17.7 NW 20.9 0.0
01:00 7.5 82.0 1010.0 17.7 NW 19.3 0.0
01:05 7.5 83.0 1010.0 17.7 WNW 19.3 0.0
01:10 7.4 84.0 1009.9 17.7 WNW 19.3 0.0
01:15 7.3 83.0 1009.8 17.7 NW 19.3 0.0
01:20 7.3 84.0 1009.8 16.1 NW 19.3 0.0
01:25 7.2 83.0 1009.7 17.7 NW 19.3 0.0
01:30 7.2 84.0 1009.7 16.1 NW 19.3 0.0
01:35 7.3 85.0 1009.6 16.1 NW 19.3 0.0
01:40 7.3 84.0 1009.7 16.1 NW 17.7 0.0
01:45 7.4 80.0 1009.7 16.1 NW 17.7 0.0
01:50 7.4 79.0 1009.7 14.5 NW 17.7 0.0
01:55 7.4 78.0 1009.7 16.1 WNW 17.7 0.0
02:00 7.3 77.0 1009.7 16.1 WNW 19.3 0.0
02:05 7.3 76.0 1009.7 14.5 WNW 19.3 0.0
02:10 7.1 77.0 1009.7 14.5 WNW 17.7 0.0
02:15 7.0 78.0 1009.7 14.5 WNW 17.7 0.0
02:20 7.0 80.0 1009.7 16.1 WNW 17.7 0.0
02:25 7.3 82.0 1009.7 17.7 WNW 19.3 0.0
02:30 7.4 83.0 1009.8 16.1 W 19.3 0.0
02:35 7.6 83.0 1009.8 16.1 W 19.3 0.0
02:40 7.6 82.0 1009.7 17.7 W 19.3 0.0
02:45 7.6 82.0 1009.7 16.1 W 19.3 0.0
02:50 7.7 82.0 1009.7 17.7 WNW 19.3 0.0
02:55 7.7 82.0 1009.7 12.9 WNW 19.3 0.0
03:00 7.6 82.0 1009.7 14.5 WNW 19.3 0.0
03:05 7.5 83.0 1009.6 14.5 WNW 19.3 0.0
03:10 7.5 82.0 1009.6 14.5 WNW 17.7 0.0
03:15 7.5 80.0 1009.6 14.5 WNW 17.7 0.0
03:20 7.5 81.0 1009.6 16.1 WNW 17.7 0.0
03:25 7.5 80.0 1009.6 14.5 WNW 16.1 0.0
03:30 7.6 80.0 1009.6 12.9 WNW 16.1 0.0
03:35 7.5 80.0 1009.5 12.9 WNW 14.5 0.0
03:40 7.5 79.0 1009.5 12.9 WNW 14.5 0.0
03:45 7.6 80.0 1009.5 14.5 WNW 16.1 0.0
03:50 7.6 81.0 1009.5 14.5 WNW 16.1 0.0
03:55 7.6 80.0 1009.6 16.1 W 19.3 0.0
04:00 7.7 77.0 1009.5 19.3 W 20.9 0.0
04:05 7.7 76.0 1009.6 16.1 W 20.9 0.0
04:10 7.7 77.0 1009.7 16.1 W 19.3 0.0
04:15 7.7 78.0 1009.7 16.1 W 19.3 0.0
04:20 7.7 78.0 1009.8 16.1 W 19.3 0.0
04:25 7.6 78.0 1009.8 14.5 W 17.7 0.0
04:30 7.6 78.0 1009.8 16.1 W 17.7 0.0
04:35 7.7 77.0 1009.8 16.1 W 17.7 0.0
04:40 7.6 78.0 1009.9 14.5 W 17.7 0.0
Màxima 7.7 86.0 1010.3 19.3 W 20.9 0.0
Mínima 7.0 76.0 1009.5
Total 0.0